Time,TemperatureF,DewpointF,PressureIn,WindDirection,WindDirectionDegrees,WindSpeedMPH,WindSpeedGustMPH,Humidity,HourlyPrecipIn,Conditions,Clouds,dailyrainin,SoftwareType,DateUTC
2013-04-07 00:00:00,33.1,31.6,29.74,WNW,293,2.0,2.0,94,0.00,,,0.05,Wunderground v.1.15,2013-04-07 05:00:00,
2013-04-07 00:06:00,32.6,30.8,29.73,NNW,347,1.0,21.0,93,0.00,,,0.00,Wunderground v.1.15,2013-04-07 05:06:00,
2013-04-07 00:08:00,32.5,31.0,29.73,North,11,1.0,21.0,94,0.00,,,0.00,Wunderground v.1.15,2013-04-07 05:08:00,
2013-04-07 00:10:00,32.3,30.5,29.73,North,360,2.0,3.0,93,0.00,,,0.00,Wunderground v.1.15,2013-04-07 05:10:00,
2013-04-07 00:14:00,32.2,30.7,29.73,NNW,333,3.0,3.0,94,0.00,,,0.00,Wunderground v.1.15,2013-04-07 05:14:00,
2013-04-07 00:18:00,32.3,31.0,29.73,NNW,334,3.0,3.0,95,0.00,,,0.00,Wunderground v.1.15,2013-04-07 05:18:00,
2013-04-07 00:20:00,32.3,31.0,29.73,NNW,327,2.0,2.0,95,0.00,,,0.00,Wunderground v.1.15,2013-04-07 05:20:00,
2013-04-07 00:26:00,32.3,31.0,29.74,North,350,1.0,2.0,95,0.00,,,0.00,Wunderground v.1.15,2013-04-07 05:26:00,
2013-04-07 00:28:00,32.2,30.9,29.74,North,349,1.0,2.0,95,0.00,,,0.00,Wunderground v.1.15,2013-04-07 05:28:00,
2013-04-07 00:32:00,31.9,30.4,29.74,North,349,0.0,1.0,94,0.00,,,0.00,Wunderground v.1.15,2013-04-07 05:32:00,
2013-04-07 00:34:00,31.8,30.5,29.74,NNW,332,0.0,1.0,95,0.00,,,0.00,Wunderground v.1.15,2013-04-07 05:34:00,
2013-04-07 00:36:00,31.9,30.6,29.74,NW,311,0.0,1.0,95,0.00,,,0.00,Wunderground v.1.15,2013-04-07 05:36:00,
2013-04-07 00:42:00,32.0,30.7,29.74,WNW,293,1.0,2.0,95,0.00,,,0.00,Wunderground v.1.15,2013-04-07 05:42:00,
2013-04-07 00:48:00,31.8,30.8,29.75,WNW,283,2.0,2.0,96,0.00,,,0.00,Wunderground v.1.15,2013-04-07 05:48:00,
2013-04-07 00:50:00,31.8,30.5,29.75,WNW,285,2.0,3.0,95,0.00,,,0.00,Wunderground v.1.15,2013-04-07 05:50:00,
2013-04-07 00:52:00,31.8,30.8,29.75,WNW,297,2.0,3.0,96,0.00,,,0.00,Wunderground v.1.15,2013-04-07 05:52:00,
2013-04-07 00:58:00,31.8,30.5,29.75,North,354,3.0,3.0,95,0.00,,,0.00,Wunderground v.1.15,2013-04-07 05:58:00,
2013-04-07 01:00:00,31.5,30.2,29.75,NNE,16,3.0,3.0,95,0.00,,,0.00,Wunderground v.1.15,2013-04-07 06:00:00,
2013-04-07 01:04:00,31.4,30.1,29.75,NNE,13,3.0,7.0,95,0.00,,,0.00,Wunderground v.1.15,2013-04-07 06:04:00,
2013-04-07 01:06:00,31.4,30.4,29.75,NNE,16,4.0,7.0,96,0.00,,,0.00,Wunderground v.1.15,2013-04-07 06:06:00,
2013-04-07 01:12:00,31.8,30.8,29.75,NNW,344,5.0,7.0,96,0.00,,,0.00,Wunderground v.1.15,2013-04-07 06:12:00,
2013-04-07 01:14:00,32.0,31.2,29.75,NNW,338,5.0,8.0,97,0.00,,,0.00,Wunderground v.1.15,2013-04-07 06:14:00,
2013-04-07 01:18:00,32.2,31.4,29.75,NNW,339,6.0,8.0,97,0.00,,,0.00,Wunderground v.1.15,2013-04-07 06:18:00,
2013-04-07 01:20:00,32.3,31.5,29.76,North,352,6.0,6.0,97,0.00,,,0.00,Wunderground v.1.15,2013-04-07 06:20:00,
2013-04-07 01:22:00,32.4,31.6,29.76,NNW,340,7.0,7.0,97,0.00,,,0.00,Wunderground v.1.15,2013-04-07 06:22:00,
2013-04-07 01:24:00,32.5,31.7,29.76,NNW,332,7.0,8.0,97,0.00,,,0.00,Wunderground v.1.15,2013-04-07 06:24:00,
2013-04-07 01:28:00,32.5,31.7,29.76,NNE,13,7.0,8.0,97,0.00,,,0.00,Wunderground v.1.15,2013-04-07 06:28:00,
2013-04-07 01:30:00,32.5,31.5,29.77,North,11,7.0,7.0,96,0.00,,,0.00,Wunderground v.1.15,2013-04-07 06:30:00,
2013-04-07 01:34:00,32.4,31.4,29.77,North,9,6.0,7.0,96,0.00,,,0.00,Wunderground v.1.15,2013-04-07 06:34:00,
2013-04-07 01:36:00,32.4,31.4,29.77,NNW,335,6.0,9.0,96,0.00,,,0.00,Wunderground v.1.15,2013-04-07 06:36:00,
2013-04-07 01:42:00,32.6,31.8,29.76,North,11,8.0,8.0,97,0.00,,,0.00,Wunderground v.1.15,2013-04-07 06:42:00,
2013-04-07 01:48:00,32.7,31.9,29.77,North,360,9.0,9.0,97,0.00,,,0.00,Wunderground v.1.15,2013-04-07 06:48:00,
2013-04-07 01:54:00,32.8,32.0,29.77,North,354,8.0,9.0,97,0.00,,,0.00,Wunderground v.1.15,2013-04-07 06:54:00,
2013-04-07 01:58:00,32.7,31.7,29.78,North,349,6.0,9.0,96,0.00,,,0.00,Wunderground v.1.15,2013-04-07 06:58:00,
2013-04-07 02:00:00,32.7,31.7,29.77,NNW,333,5.0,7.0,96,0.00,,,0.00,Wunderground v.1.15,2013-04-07 07:00:00,
2013-04-07 02:04:00,32.5,31.5,29.77,NNW,337,4.0,7.0,96,0.00,,,0.00,Wunderground v.1.15,2013-04-07 07:04:00,
2013-04-07 02:10:00,32.1,31.1,29.77,NW,324,4.0,4.0,96,0.00,,,0.00,Wunderground v.1.15,2013-04-07 07:10:00,
2013-04-07 02:12:00,32.0,31.0,29.77,NW,321,3.0,7.0,96,0.00,,,0.00,Wunderground v.1.15,2013-04-07 07:12:00,
2013-04-07 02:14:00,31.9,30.9,29.77,NW,325,3.0,7.0,96,0.00,,,0.00,Wunderground v.1.15,2013-04-07 07:14:00,
2013-04-07 02:16:00,31.9,30.9,29.77,NW,316,3.0,7.0,96,0.00,,,0.00,Wunderground v.1.15,2013-04-07 07:16:00,
2013-04-07 02:20:00,31.5,30.2,29.77,NW,314,2.0,2.0,95,0.00,,,0.00,Wunderground v.1.15,2013-04-07 07:20:00,
2013-04-07 02:22:00,31.2,29.9,29.78,NW,315,2.0,7.0,95,0.00,,,0.00,Wunderground v.1.15,2013-04-07 07:22:00,
2013-04-07 02:28:00,30.6,29.3,29.78,NW,315,0.0,7.0,95,0.00,,,0.00,Wunderground v.1.15,2013-04-07 07:28:00,
2013-04-07 02:32:00,30.3,29.0,29.78,NW,315,0.0,7.0,95,0.00,,,0.00,Wunderground v.1.15,2013-04-07 07:32:00,
2013-04-07 02:36:00,30.2,29.2,29.78,NW,315,0.0,7.0,96,0.00,,,0.00,Wunderground v.1.15,2013-04-07 07:36:00,
2013-04-07 02:42:00,30.4,29.7,29.78,WSW,242,0.0,7.0,97,0.00,,,0.00,Wunderground v.1.15,2013-04-07 07:42:00,
2013-04-07 02:44:00,30.6,29.9,29.78,West,280,1.0,7.0,97,0.00,,,0.00,Wunderground v.1.15,2013-04-07 07:44:00,
2013-04-07 02:48:00,30.8,30.0,29.78,WNW,293,1.0,7.0,97,0.00,,,0.00,Wunderground v.1.15,2013-04-07 07:48:00,
2013-04-07 02:50:00,30.8,30.0,29.78,NW,305,1.0,7.0,97,0.00,,,0.00,Wunderground v.1.15,2013-04-07 07:50:00,
2013-04-07 02:52:00,30.7,30.0,29.78,NW,319,1.0,7.0,97,0.00,,,0.00,Wunderground v.1.15,2013-04-07 07:52:00,
2013-04-07 02:56:00,30.5,29.5,29.78,NNW,345,2.0,7.0,96,0.00,,,0.00,Wunderground v.1.15,2013-04-07 07:56:00,
2013-04-07 02:58:00,30.3,29.3,29.78,North,9,2.0,7.0,96,0.00,,,0.00,Wunderground v.1.15,2013-04-07 07:58:00,
2013-04-07 03:00:00,30.3,29.3,29.78,NNE,13,2.0,7.0,96,0.00,,,0.00,Wunderground v.1.15,2013-04-07 08:00:00,
2013-04-07 03:04:00,30.2,29.2,29.78,North,354,2.0,7.0,96,0.00,,,0.00,Wunderground v.1.15,2013-04-07 08:04:00,
2013-04-07 03:06:00,30.1,29.1,29.78,North,360,2.0,7.0,96,0.00,,,0.00,Wunderground v.1.15,2013-04-07 08:06:00,
2013-04-07 03:08:00,30.1,29.1,29.78,WNW,298,1.0,7.0,96,0.00,,,0.00,Wunderground v.1.15,2013-04-07 08:08:00,
2013-04-07 03:10:00,30.2,29.5,29.78,NW,326,1.0,7.0,97,0.00,,,0.00,Wunderground v.1.15,2013-04-07 08:10:00,
2013-04-07 03:16:00,30.2,29.5,29.78,North,1,2.0,7.0,97,0.00,,,0.00,Wunderground v.1.15,2013-04-07 08:16:00,
2013-04-07 03:18:00,30.2,29.2,29.78,NNE,16,2.0,7.0,96,0.00,,,0.00,Wunderground v.1.15,2013-04-07 08:18:00,
2013-04-07 03:20:00,30.1,29.1,29.78,NNW,347,3.0,3.0,96,0.00,,,0.00,Wunderground v.1.15,2013-04-07 08:20:00,
2013-04-07 03:24:00,30.0,29.0,29.78,NW,324,3.0,7.0,96,0.00,,,0.00,Wunderground v.1.15,2013-04-07 08:24:00,
2013-04-07 03:26:00,29.9,28.9,29.78,NW,309,2.0,7.0,96,0.00,,,0.00,Wunderground v.1.15,2013-04-07 08:26:00,
2013-04-07 03:30:00,29.8,28.8,29.78,NW,321,2.0,7.0,96,0.00,,,0.00,Wunderground v.1.15,2013-04-07 08:30:00,
2013-04-07 03:34:00,29.4,28.1,29.78,WNW,301,2.0,7.0,95,0.00,,,0.00,Wunderground v.1.15,2013-04-07 08:34:00,
2013-04-07 03:36:00,29.4,28.4,29.78,WNW,297,2.0,7.0,96,0.00,,,0.00,Wunderground v.1.15,2013-04-07 08:36:00,
2013-04-07 03:40:00,29.4,28.4,29.78,WNW,282,1.0,1.0,96,0.00,,,0.00,Wunderground v.1.15,2013-04-07 08:40:00,
2013-04-07 03:42:00,29.4,28.4,29.78,WNW,294,1.0,2.0,96,0.00,,,0.00,Wunderground v.1.15,2013-04-07 08:42:00,
2013-04-07 03:46:00,29.4,28.4,29.78,NNW,345,1.0,7.0,96,0.00,,,0.00,Wunderground v.1.15,2013-04-07 08:46:00,
2013-04-07 03:52:00,29.0,28.0,29.79,North,350,1.0,7.0,96,0.00,,,0.00,Wunderground v.1.15,2013-04-07 08:52:00,
2013-04-07 03:58:00,29.0,28.0,29.78,North,6,0.0,7.0,96,0.00,,,0.00,Wunderground v.1.15,2013-04-07 08:58:00,
2013-04-07 04:00:00,28.9,27.9,29.78,North,3,0.0,7.0,96,0.00,,,0.00,Wunderground v.1.15,2013-04-07 09:00:00,
2013-04-07 04:06:00,29.0,28.0,29.78,North,350,1.0,7.0,96,0.00,,,0.00,Wunderground v.1.15,2013-04-07 09:06:00,
2013-04-07 04:08:00,29.0,28.0,29.78,North,356,2.0,7.0,96,0.00,,,0.00,Wunderground v.1.15,2013-04-07 09:08:00,
2013-04-07 04:10:00,29.0,28.0,29.78,North,3,2.0,7.0,96,0.00,,,0.00,Wunderground v.1.15,2013-04-07 09:10:00,
2013-04-07 04:16:00,29.0,28.0,29.79,North,9,1.0,7.0,96,0.00,,,0.00,Wunderground v.1.15,2013-04-07 09:16:00,
2013-04-07 04:18:00,29.0,28.0,29.78,North,9,1.0,7.0,96,0.00,,,0.00,Wunderground v.1.15,2013-04-07 09:18:00,
2013-04-07 04:24:00,28.9,27.9,29.78,North,349,0.0,7.0,96,0.00,,,0.00,Wunderground v.1.15,2013-04-07 09:24:00,
2013-04-07 04:26:00,28.8,27.8,29.79,North,354,1.0,7.0,96,0.00,,,0.00,Wunderground v.1.15,2013-04-07 09:26:00,
2013-04-07 04:30:00,28.6,27.6,29.80,North,352,1.0,7.0,96,0.00,,,0.00,Wunderground v.1.15,2013-04-07 09:30:00,
2013-04-07 04:38:00,28.5,27.5,29.80,NNW,341,2.0,7.0,96,0.00,,,0.00,Wunderground v.1.15,2013-04-07 09:38:00,
2013-04-07 04:40:00,28.5,27.5,29.80,North,358,2.0,7.0,96,0.00,,,0.00,Wunderground v.1.15,2013-04-07 09:40:00,
2013-04-07 04:42:00,28.5,27.5,29.80,NNW,346,2.0,7.0,96,0.00,,,0.00,Wunderground v.1.15,2013-04-07 09:42:00,
2013-04-07 04:46:00,28.6,27.9,29.80,North,355,2.0,7.0,97,0.00,,,0.00,Wunderground v.1.15,2013-04-07 09:46:00,
2013-04-07 04:50:00,29.0,28.3,29.80,North,11,2.0,7.0,97,0.00,,,0.00,Wunderground v.1.15,2013-04-07 09:50:00,
2013-04-07 04:52:00,29.3,28.6,29.80,NNE,16,3.0,7.0,97,0.00,,,0.00,Wunderground v.1.15,2013-04-07 09:52:00,
2013-04-07 04:54:00,29.5,29.0,29.80,North,356,4.0,7.0,98,0.00,,,0.00,Wunderground v.1.15,2013-04-07 09:54:00,
2013-04-07 04:58:00,29.7,29.0,29.80,NNE,15,5.0,7.0,97,0.00,,,0.00,Wunderground v.1.15,2013-04-07 09:58:00,
2013-04-07 05:00:00,29.8,29.1,29.80,NE,39,6.0,7.0,97,0.00,,,0.00,Wunderground v.1.15,2013-04-07 10:00:00,
2013-04-07 05:06:00,29.9,29.2,29.80,NNE,19,7.0,8.0,97,0.00,,,0.00,Wunderground v.1.15,2013-04-07 10:06:00,
2013-04-07 05:10:00,30.1,29.4,29.80,NNE,27,7.0,7.0,97,0.00,,,0.00,Wunderground v.1.15,2013-04-07 10:10:00,
2013-04-07 05:12:00,30.1,29.4,29.81,NNE,18,7.0,9.0,97,0.00,,,0.00,Wunderground v.1.15,2013-04-07 10:12:00,
2013-04-07 05:14:00,30.2,29.5,29.81,North,3,7.0,9.0,97,0.00,,,0.00,Wunderground v.1.15,2013-04-07 10:14:00,
2013-04-07 05:18:00,30.2,29.5,29.81,NNE,19,7.0,9.0,97,0.00,,,0.00,Wunderground v.1.15,2013-04-07 10:18:00,
2013-04-07 05:20:00,30.2,29.5,29.80,NNE,14,7.0,8.0,97,0.00,,,0.00,Wunderground v.1.15,2013-04-07 10:20:00,
2013-04-07 05:26:00,30.2,29.5,29.80,NNE,19,8.0,12.0,97,0.00,,,0.00,Wunderground v.1.15,2013-04-07 10:26:00,
2013-04-07 05:30:00,30.2,29.5,29.80,NNE,23,9.0,9.0,97,0.00,,,0.00,Wunderground v.1.15,2013-04-07 10:30:00,
2013-04-07 05:32:00,30.2,29.5,29.80,NE,48,8.0,9.0,97,0.00,,,0.00,Wunderground v.1.15,2013-04-07 10:32:00,
2013-04-07 05:34:00,30.1,29.4,29.80,NNE,25,8.0,9.0,97,0.00,,,0.00,Wunderground v.1.15,2013-04-07 10:34:00,
2013-04-07 05:36:00,30.1,29.4,29.80,NNE,18,8.0,9.0,97,0.00,,,0.00,Wunderground v.1.15,2013-04-07 10:36:00,
2013-04-07 05:40:00,30.2,29.5,29.80,NE,46,7.0,7.0,97,0.00,,,0.00,Wunderground v.1.15,2013-04-07 10:40:00,
2013-04-07 05:42:00,30.2,29.5,29.80,NE,35,7.0,7.0,97,0.00,,,0.00,Wunderground v.1.15,2013-04-07 10:42:00,
2013-04-07 05:44:00,30.1,29.4,29.80,NNE,31,7.0,11.0,97,0.00,,,0.00,Wunderground v.1.15,2013-04-07 10:44:00,
2013-04-07 05:48:00,30.1,29.4,29.80,NNE,26,7.0,11.0,97,0.00,,,0.00,Wunderground v.1.15,2013-04-07 10:48:00,
2013-04-07 05:50:00,30.2,29.5,29.80,NE,44,7.0,7.0,97,0.00,,,0.00,Wunderground v.1.15,2013-04-07 10:50:00,
2013-04-07 05:54:00,30.2,29.5,29.80,NNE,25,8.0,9.0,97,0.00,,,0.00,Wunderground v.1.15,2013-04-07 10:54:00,
2013-04-07 05:58:00,30.1,29.4,29.81,NNE,20,8.0,10.0,97,0.00,,,0.00,Wunderground v.1.15,2013-04-07 10:58:00,
2013-04-07 06:00:00,30.1,29.4,29.81,NNE,25,7.0,7.0,97,0.00,,,0.00,Wunderground v.1.15,2013-04-07 11:00:00,
2013-04-07 06:02:00,30.1,29.4,29.81,NNE,27,7.0,7.0,97,0.00,,,0.00,Wunderground v.1.15,2013-04-07 11:02:00,
2013-04-07 06:04:00,30.2,29.5,29.81,NNE,30,7.0,7.0,97,0.00,,,0.00,Wunderground v.1.15,2013-04-07 11:04:00,
2013-04-07 06:06:00,30.2,29.7,29.81,NNE,29,6.0,7.0,98,0.00,,,0.00,Wunderground v.1.15,2013-04-07 11:06:00,
2013-04-07 06:12:00,30.1,29.4,29.81,NNE,29,6.0,7.0,97,0.00,,,0.00,Wunderground v.1.15,2013-04-07 11:12:00,
2013-04-07 06:14:00,30.1,29.4,29.81,NNE,33,6.0,7.0,97,0.00,,,0.00,Wunderground v.1.15,2013-04-07 11:14:00,
2013-04-07 06:18:00,30.1,29.6,29.82,NE,48,5.0,7.0,98,0.00,,,0.00,Wunderground v.1.15,2013-04-07 11:18:00,
2013-04-07 06:24:00,30.0,29.5,29.82,NE,41,5.0,7.0,98,0.00,,,0.00,Wunderground v.1.15,2013-04-07 11:24:00,
2013-04-07 06:26:00,30.1,29.6,29.82,NE,47,5.0,7.0,98,0.00,,,0.00,Wunderground v.1.15,2013-04-07 11:26:00,
2013-04-07 06:28:00,30.0,29.5,29.82,NE,44,5.0,7.0,98,0.00,,,0.00,Wunderground v.1.15,2013-04-07 11:28:00,
2013-04-07 06:34:00,30.0,29.5,29.83,NNE,31,5.0,7.0,98,0.00,,,0.00,Wunderground v.1.15,2013-04-07 11:34:00,
2013-04-07 06:36:00,30.0,29.5,29.83,NE,36,6.0,7.0,98,0.00,,,0.00,Wunderground v.1.15,2013-04-07 11:36:00,
2013-04-07 06:42:00,29.9,29.4,29.83,NNE,20,6.0,8.0,98,0.00,,,0.00,Wunderground v.1.15,2013-04-07 11:42:00,
2013-04-07 06:48:00,29.9,29.4,29.84,North,8,6.0,8.0,98,0.00,,,0.00,Wunderground v.1.15,2013-04-07 11:48:00,
2013-04-07 06:52:00,30.0,29.5,29.84,NNE,17,6.0,7.0,98,0.00,,,0.00,Wunderground v.1.15,2013-04-07 11:52:00,
2013-04-07 06:58:00,30.0,29.5,29.83,NE,36,6.0,8.0,98,0.00,,,0.00,Wunderground v.1.15,2013-04-07 11:58:00,
2013-04-07 07:02:00,29.9,29.4,29.83,NNE,27,7.0,10.0,98,0.00,,,0.00,Wunderground v.1.15,2013-04-07 12:02:00,
2013-04-07 07:04:00,29.8,29.3,29.84,NNE,20,8.0,10.0,98,0.00,,,0.00,Wunderground v.1.15,2013-04-07 12:04:00,
2013-04-07 07:10:00,29.8,29.3,29.83,NNE,18,8.0,8.0,98,0.00,,,0.00,Wunderground v.1.15,2013-04-07 12:10:00,
2013-04-07 07:12:00,29.8,29.3,29.83,NE,38,7.0,8.0,98,0.00,,,0.00,Wunderground v.1.15,2013-04-07 12:12:00,
2013-04-07 07:14:00,29.8,29.3,29.83,NE,39,7.0,8.0,98,0.00,,,0.00,Wunderground v.1.15,2013-04-07 12:14:00,
2013-04-07 07:18:00,29.9,29.4,29.84,NE,49,6.0,8.0,98,0.00,,,0.00,Wunderground v.1.15,2013-04-07 12:18:00,
2013-04-07 07:22:00,29.9,29.4,29.84,East,91,5.0,7.0,98,0.00,,,0.00,Wunderground v.1.15,2013-04-07 12:22:00,
2013-04-07 07:24:00,30.0,29.5,29.84,NE,50,4.0,7.0,98,0.00,,,0.00,Wunderground v.1.15,2013-04-07 12:24:00,
2013-04-07 07:28:00,29.9,29.4,29.84,NE,51,3.0,7.0,98,0.00,,,0.00,Wunderground v.1.15,2013-04-07 12:28:00,
2013-04-07 07:30:00,29.9,29.4,29.84,NE,52,4.0,4.0,98,0.00,,,0.00,Wunderground v.1.15,2013-04-07 12:30:00,
2013-04-07 07:36:00,29.9,29.4,29.84,NE,49,4.0,8.0,98,0.00,,,0.00,Wunderground v.1.15,2013-04-07 12:36:00,
2013-04-07 07:38:00,29.9,29.4,29.84,NE,47,5.0,8.0,98,0.00,,,0.00,Wunderground v.1.15,2013-04-07 12:38:00,
2013-04-07 07:42:00,29.8,29.3,29.84,ENE,58,5.0,7.0,98,0.00,,,0.00,Wunderground v.1.15,2013-04-07 12:42:00,
2013-04-07 07:44:00,29.8,29.3,29.84,NE,44,5.0,7.0,98,0.00,,,0.00,Wunderground v.1.15,2013-04-07 12:44:00,
2013-04-07 07:48:00,29.9,29.4,29.85,NNE,29,5.0,7.0,98,0.00,,,0.00,Wunderground v.1.15,2013-04-07 12:48:00,
2013-04-07 07:52:00,29.9,29.4,29.85,NE,44,5.0,7.0,98,0.00,,,0.00,Wunderground v.1.15,2013-04-07 12:52:00,
2013-04-07 07:54:00,29.9,29.4,29.85,NE,54,4.0,7.0,98,0.00,,,0.00,Wunderground v.1.15,2013-04-07 12:54:00,
2013-04-07 07:56:00,29.9,29.4,29.86,NE,39,4.0,7.0,98,0.00,,,0.00,Wunderground v.1.15,2013-04-07 12:56:00,
2013-04-07 08:02:00,29.9,29.4,29.86,NNE,29,3.0,7.0,98,0.00,,,0.00,Wunderground v.1.15,2013-04-07 13:02:00,
2013-04-07 08:04:00,30.0,29.5,29.85,NE,37,3.0,7.0,98,0.00,,,0.00,Wunderground v.1.15,2013-04-07 13:04:00,
2013-04-07 08:08:00,30.1,29.6,29.85,NE,36,4.0,7.0,98,0.00,,,0.00,Wunderground v.1.15,2013-04-07 13:08:00,
2013-04-07 08:10:00,30.1,29.6,29.86,NE,42,4.0,4.0,98,0.00,,,0.00,Wunderground v.1.15,2013-04-07 13:10:00,
2013-04-07 08:12:00,30.1,29.6,29.86,NE,51,4.0,7.0,98,0.00,,,0.00,Wunderground v.1.15,2013-04-07 13:12:00,
2013-04-07 08:18:00,30.3,29.8,29.86,ENE,71,3.0,7.0,98,0.00,,,0.00,Wunderground v.1.15,2013-04-07 13:18:00,
2013-04-07 08:20:00,30.3,29.8,29.86,NE,36,3.0,7.0,98,0.00,,,0.00,Wunderground v.1.15,2013-04-07 13:20:00,
2013-04-07 08:22:00,30.3,29.8,29.86,ENE,65,3.0,7.0,98,0.00,,,0.00,Wunderground v.1.15,2013-04-07 13:22:00,
2013-04-07 08:24:00,30.3,29.8,29.86,ENE,70,4.0,7.0,98,0.00,,,0.00,Wunderground v.1.15,2013-04-07 13:24:00,
2013-04-07 08:26:00,30.3,29.8,29.86,ESE,117,4.0,7.0,98,0.00,,,0.00,Wunderground v.1.15,2013-04-07 13:26:00,
2013-04-07 08:28:00,30.3,29.8,29.86,NE,49,4.0,7.0,98,0.00,,,0.00,Wunderground v.1.15,2013-04-07 13:28:00,
2013-04-07 08:30:00,30.2,29.7,29.86,NE,44,4.0,7.0,98,0.00,,,0.00,Wunderground v.1.15,2013-04-07 13:30:00,
2013-04-07 08:32:00,30.2,29.7,29.86,NE,38,4.0,7.0,98,0.00,,,0.00,Wunderground v.1.15,2013-04-07 13:32:00,
2013-04-07 08:34:00,30.2,29.7,29.86,NNE,31,4.0,7.0,98,0.00,,,0.00,Wunderground v.1.15,2013-04-07 13:34:00,
2013-04-07 08:40:00,30.2,29.7,29.86,NE,47,5.0,7.0,98,0.00,,,0.00,Wunderground v.1.15,2013-04-07 13:40:00,
2013-04-07 08:42:00,30.2,29.7,29.86,NE,37,5.0,7.0,98,0.00,,,0.00,Wunderground v.1.15,2013-04-07 13:42:00,
2013-04-07 08:46:00,30.2,29.7,29.86,ENE,61,5.0,7.0,98,0.00,,,0.00,Wunderground v.1.15,2013-04-07 13:46:00,
2013-04-07 08:52:00,30.2,29.7,29.87,ENE,60,4.0,7.0,98,0.00,,,0.00,Wunderground v.1.15,2013-04-07 13:52:00,
2013-04-07 08:56:00,30.3,29.8,29.87,SSE,147,3.0,7.0,98,0.00,,,0.00,Wunderground v.1.15,2013-04-07 13:56:00,
2013-04-07 08:58:00,30.4,29.9,29.87,ENE,75,2.0,7.0,98,0.00,,,0.00,Wunderground v.1.15,2013-04-07 13:58:00,
2013-04-07 09:06:00,30.4,29.9,29.87,NE,47,2.0,7.0,98,0.00,,,0.00,Wunderground v.1.15,2013-04-07 14:06:00,
2013-04-07 09:12:00,30.4,29.9,29.86,ENE,58,4.0,7.0,98,0.00,,,0.00,Wunderground v.1.15,2013-04-07 14:12:00,
2013-04-07 09:18:00,30.6,30.1,29.87,NE,50,3.0,7.0,98,0.00,,,0.00,Wunderground v.1.15,2013-04-07 14:18:00,
2013-04-07 09:24:00,31.0,30.8,29.87,NE,54,1.0,7.0,99,0.00,,,0.00,Wunderground v.1.15,2013-04-07 14:24:00,
2013-04-07 09:26:00,31.0,30.8,29.88,East,84,1.0,7.0,99,0.00,,,0.00,Wunderground v.1.15,2013-04-07 14:26:00,
2013-04-07 09:28:00,31.0,30.8,29.88,North,6,1.0,7.0,99,0.00,,,0.00,Wunderground v.1.15,2013-04-07 14:28:00,
2013-04-07 09:30:00,31.0,30.8,29.88,East,91,1.0,7.0,99,0.00,,,0.00,Wunderground v.1.15,2013-04-07 14:30:00,
2013-04-07 09:32:00,30.9,30.7,29.89,ENE,69,1.0,7.0,99,0.00,,,0.00,Wunderground v.1.15,2013-04-07 14:32:00,
2013-04-07 09:36:00,30.9,30.4,29.88,ENE,58,2.0,7.0,98,0.00,,,0.00,Wunderground v.1.15,2013-04-07 14:36:00,
2013-04-07 09:38:00,30.9,30.4,29.88,East,82,2.0,7.0,98,0.00,,,0.00,Wunderground v.1.15,2013-04-07 14:38:00,
2013-04-07 09:44:00,30.9,30.4,29.88,NE,46,2.0,7.0,98,0.00,,,0.00,Wunderground v.1.15,2013-04-07 14:44:00,
2013-04-07 09:46:00,30.9,30.4,29.88,NE,51,2.0,7.0,98,0.00,,,0.00,Wunderground v.1.15,2013-04-07 14:46:00,
2013-04-07 09:48:00,31.1,30.9,29.88,ENE,75,2.0,7.0,99,0.00,,,0.00,Wunderground v.1.15,2013-04-07 14:48:00,
2013-04-07 09:56:00,31.4,31.2,29.88,NE,48,1.0,7.0,99,0.00,,,0.00,Wunderground v.1.15,2013-04-07 14:56:00,
2013-04-07 09:58:00,31.4,31.2,29.88,ENE,60,2.0,7.0,99,0.00,,,0.00,Wunderground v.1.15,2013-04-07 14:58:00,
2013-04-07 10:02:00,31.5,31.3,29.88,NE,41,3.0,7.0,99,0.00,,,0.00,Wunderground v.1.15,2013-04-07 15:02:00,
2013-04-07 10:08:00,31.6,31.4,29.88,NE,47,4.0,7.0,99,0.00,,,0.00,Wunderground v.1.15,2013-04-07 15:08:00,
2013-04-07 10:10:00,31.7,31.5,29.88,SSE,160,4.0,4.0,99,0.00,,,0.00,Wunderground v.1.15,2013-04-07 15:10:00,
2013-04-07 10:14:00,31.7,31.5,29.88,East,98,3.0,7.0,99,0.00,,,0.00,Wunderground v.1.15,2013-04-07 15:14:00,
2013-04-07 10:20:00,31.9,31.7,29.90,East,81,1.0,7.0,99,0.00,,,0.00,Wunderground v.1.15,2013-04-07 15:20:00,
2013-04-07 10:22:00,32.0,31.8,29.89,ENE,70,1.0,7.0,99,0.00,,,0.00,Wunderground v.1.15,2013-04-07 15:22:00,
2013-04-07 10:24:00,32.0,31.8,29.89,ENE,69,1.0,7.0,99,0.00,,,0.00,Wunderground v.1.15,2013-04-07 15:24:00,
2013-04-07 10:30:00,32.0,31.8,29.89,SE,132,1.0,1.0,99,0.00,,,0.00,Wunderground v.1.15,2013-04-07 15:30:00,
2013-04-07 10:38:00,32.4,32.2,29.88,ENE,59,1.0,7.0,99,0.00,,,0.00,Wunderground v.1.15,2013-04-07 15:38:00,
2013-04-07 10:44:00,32.8,32.6,29.88,NE,47,1.0,7.0,99,0.00,,,0.00,Wunderground v.1.15,2013-04-07 15:44:00,
2013-04-07 10:50:00,32.6,32.4,29.88,ENE,72,2.0,7.0,99,0.00,,,0.00,Wunderground v.1.15,2013-04-07 15:50:00,
2013-04-07 10:56:00,32.6,32.4,29.88,NE,44,3.0,7.0,99,0.00,,,0.00,Wunderground v.1.15,2013-04-07 15:56:00,
2013-04-07 11:00:00,32.7,32.5,29.88,NE,53,3.0,3.0,99,0.00,,,0.00,Wunderground v.1.15,2013-04-07 16:00:00,
2013-04-07 11:08:00,32.8,32.6,29.88,NE,54,3.0,7.0,99,0.00,,,0.00,Wunderground v.1.15,2013-04-07 16:08:00,
2013-04-07 11:18:00,33.0,32.8,29.87,SSW,195,3.0,7.0,99,0.00,,,0.00,Wunderground v.1.15,2013-04-07 16:18:00,
2013-04-07 11:20:00,33.2,33.0,29.87,NE,42,3.0,3.0,99,0.00,,,0.00,Wunderground v.1.15,2013-04-07 16:20:00,
2013-04-07 11:24:00,33.7,33.4,29.87,NNE,15,2.0,7.0,99,0.00,,,0.00,Wunderground v.1.15,2013-04-07 16:24:00,
2013-04-07 11:26:00,33.9,33.6,29.87,ENE,66,2.0,7.0,99,0.00,,,0.00,Wunderground v.1.15,2013-04-07 16:26:00,
2013-04-07 11:28:00,33.8,33.5,29.87,SSW,197,2.0,7.0,99,0.00,,,0.00,Wunderground v.1.15,2013-04-07 16:28:00,
2013-04-07 11:32:00,33.7,33.4,29.87,NE,37,3.0,7.0,99,0.00,,,0.00,Wunderground v.1.15,2013-04-07 16:32:00,
2013-04-07 11:34:00,33.7,33.4,29.87,ESE,122,3.0,7.0,99,0.00,,,0.00,Wunderground v.1.15,2013-04-07 16:34:00,
2013-04-07 11:38:00,34.0,33.7,29.86,East,89,3.0,7.0,99,0.00,,,0.00,Wunderground v.1.15,2013-04-07 16:38:00,
2013-04-07 11:40:00,33.9,33.6,29.86,NE,55,3.0,7.0,99,0.00,,,0.00,Wunderground v.1.15,2013-04-07 16:40:00,
2013-04-07 11:44:00,34.1,33.8,29.86,ENE,77,3.0,7.0,99,0.00,,,0.00,Wunderground v.1.15,2013-04-07 16:44:00,
2013-04-07 11:46:00,34.2,33.9,29.86,East,81,3.0,7.0,99,0.00,,,0.00,Wunderground v.1.15,2013-04-07 16:46:00,
2013-04-07 11:48:00,34.3,34.0,29.86,NE,49,3.0,7.0,99,0.00,,,0.00,Wunderground v.1.15,2013-04-07 16:48:00,
2013-04-07 11:52:00,34.6,34.3,29.86,North,6,2.0,7.0,99,0.00,,,0.00,Wunderground v.1.15,2013-04-07 16:52:00,
2013-04-07 11:54:00,34.8,34.5,29.86,SW,228,2.0,7.0,99,0.00,,,0.00,Wunderground v.1.15,2013-04-07 16:54:00,
2013-04-07 12:02:00,35.6,35.3,29.86,SSW,198,2.0,7.0,99,0.00,,,0.00,Wunderground v.1.15,2013-04-07 17:02:00,
2013-04-07 12:04:00,35.6,35.1,29.86,SSE,167,3.0,7.0,98,0.00,,,0.00,Wunderground v.1.15,2013-04-07 17:04:00,
2013-04-07 12:06:00,35.7,35.2,29.86,West,277,3.0,7.0,98,0.00,,,0.00,Wunderground v.1.15,2013-04-07 17:06:00,
2013-04-07 12:10:00,36.0,35.2,29.86,East,91,3.0,3.0,97,0.00,,,0.00,Wunderground v.1.15,2013-04-07 17:10:00,
2013-04-07 12:12:00,36.1,35.3,29.85,SSE,165,3.0,4.0,97,0.00,,,0.00,Wunderground v.1.15,2013-04-07 17:12:00,
2013-04-07 12:14:00,36.1,35.1,29.85,SSE,150,3.0,4.0,96,0.00,,,0.00,Wunderground v.1.15,2013-04-07 17:14:00,
2013-04-07 12:16:00,36.2,35.2,29.85,West,281,3.0,4.0,96,0.00,,,0.00,Wunderground v.1.15,2013-04-07 17:16:00,
2013-04-07 12:22:00,36.7,35.4,29.85,ESE,117,3.0,4.0,95,0.00,,,0.00,Wunderground v.1.15,2013-04-07 17:22:00,
2013-04-07 12:28:00,37.0,35.4,29.85,South,190,3.0,4.0,94,0.00,,,0.00,Wunderground v.1.15,2013-04-07 17:28:00,
2013-04-07 12:30:00,37.1,35.5,29.85,SSW,208,3.0,3.0,94,0.00,,,0.00,Wunderground v.1.15,2013-04-07 17:30:00,
2013-04-07 12:34:00,37.2,35.4,29.84,NNW,344,3.0,4.0,93,0.00,,,0.00,Wunderground v.1.15,2013-04-07 17:34:00,
2013-04-07 12:36:00,37.4,35.6,29.84,SW,218,3.0,4.0,93,0.00,,,0.00,Wunderground v.1.15,2013-04-07 17:36:00,
2013-04-07 12:42:00,38.1,36.0,29.84,SE,136,3.0,4.0,92,0.00,,,0.00,Wunderground v.1.15,2013-04-07 17:42:00,
2013-04-07 12:44:00,38.4,36.3,29.84,SSE,159,3.0,5.0,92,0.00,,,0.00,Wunderground v.1.15,2013-04-07 17:44:00,
2013-04-07 12:46:00,38.7,36.3,29.84,West,270,4.0,5.0,91,0.00,,,0.00,Wunderground v.1.15,2013-04-07 17:46:00,
2013-04-07 12:50:00,39.2,36.5,29.84,SE,142,4.0,4.0,90,0.00,,,0.00,Wunderground v.1.15,2013-04-07 17:50:00,
2013-04-07 12:52:00,39.3,36.3,29.84,SSE,156,4.0,6.0,89,0.00,,,0.00,Wunderground v.1.15,2013-04-07 17:52:00,
2013-04-07 12:58:00,39.4,35.6,29.84,SE,141,5.0,8.0,86,0.00,,,0.00,Wunderground v.1.15,2013-04-07 17:58:00,
2013-04-07 13:00:00,39.1,35.3,29.85,SE,146,6.0,6.0,86,0.00,,,0.00,Wunderground v.1.15,2013-04-07 18:00:00,
2013-04-07 13:04:00,38.9,35.6,29.84,SSE,160,5.0,10.0,88,0.00,,,0.00,Wunderground v.1.15,2013-04-07 18:04:00,
2013-04-07 13:08:00,38.9,35.6,29.85,ESE,122,6.0,10.0,88,0.00,,,0.00,Wunderground v.1.15,2013-04-07 18:08:00,
2013-04-07 13:10:00,38.8,35.6,29.84,SE,136,6.0,10.0,88,0.00,,,0.00,Wunderground v.1.15,2013-04-07 18:10:00,
2013-04-07 13:14:00,38.8,35.6,29.85,SE,141,7.0,10.0,88,0.00,,,0.00,Wunderground v.1.15,2013-04-07 18:14:00,
2013-04-07 13:16:00,38.9,35.9,29.85,SE,146,7.0,10.0,89,0.00,,,0.00,Wunderground v.1.15,2013-04-07 18:16:00,
2013-04-07 13:18:00,39.0,36.0,29.85,SE,131,7.0,10.0,89,0.00,,,0.00,Wunderground v.1.15,2013-04-07 18:18:00,
2013-04-07 13:22:00,39.0,35.7,29.85,SE,136,7.0,10.0,88,0.00,,,0.00,Wunderground v.1.15,2013-04-07 18:22:00,
2013-04-07 13:28:00,39.1,36.1,29.85,SE,143,7.0,10.0,89,0.00,,,0.00,Wunderground v.1.15,2013-04-07 18:28:00,
2013-04-07 13:30:00,39.1,35.8,29.84,SE,138,7.0,10.0,88,0.00,,,0.00,Wunderground v.1.15,2013-04-07 18:30:00,
2013-04-07 13:34:00,38.9,35.6,29.84,SSE,148,8.0,10.0,88,0.00,,,0.00,Wunderground v.1.15,2013-04-07 18:34:00,
2013-04-07 13:40:00,38.7,35.5,29.84,SE,132,7.0,7.0,88,0.00,,,0.00,Wunderground v.1.15,2013-04-07 18:40:00,
2013-04-07 13:44:00,38.7,35.7,29.83,SE,126,7.0,10.0,89,0.00,,,0.00,Wunderground v.1.15,2013-04-07 18:44:00,
2013-04-07 13:48:00,38.7,35.7,29.83,ESE,120,7.0,10.0,89,0.00,,,0.00,Wunderground v.1.15,2013-04-07 18:48:00,
2013-04-07 13:52:00,38.8,35.8,29.83,SE,138,7.0,10.0,89,0.00,,,0.00,Wunderground v.1.15,2013-04-07 18:52:00,
2013-04-07 13:58:00,39.4,36.7,29.82,SE,142,7.0,10.0,90,0.00,,,0.00,Wunderground v.1.15,2013-04-07 18:58:00,
2013-04-07 14:00:00,39.5,36.5,29.82,SE,136,7.0,10.0,89,0.00,,,0.00,Wunderground v.1.15,2013-04-07 19:00:00,
2013-04-07 14:02:00,39.5,36.5,29.82,SSE,148,7.0,10.0,89,0.00,,,0.00,Wunderground v.1.15,2013-04-07 19:02:00,
2013-04-07 14:08:00,40.1,36.8,29.81,SE,136,8.0,10.0,88,0.00,,,0.00,Wunderground v.1.15,2013-04-07 19:08:00,
2013-04-07 14:12:00,40.5,36.9,29.81,SE,139,7.0,11.0,87,0.00,,,0.00,Wunderground v.1.15,2013-04-07 19:12:00,
2013-04-07 14:18:00,41.3,38.0,29.81,SE,141,7.0,11.0,88,0.00,,,0.00,Wunderground v.1.15,2013-04-07 19:18:00,
2013-04-07 14:20:00,41.5,37.9,29.81,SSE,150,8.0,8.0,87,0.00,,,0.00,Wunderground v.1.15,2013-04-07 19:20:00,
2013-04-07 14:22:00,41.7,38.1,29.80,SE,141,7.0,10.0,87,0.00,,,0.00,Wunderground v.1.15,2013-04-07 19:22:00,
2013-04-07 14:26:00,42.0,38.1,29.80,SE,142,8.0,10.0,86,0.00,,,0.00,Wunderground v.1.15,2013-04-07 19:26:00,
2013-04-07 14:30:00,42.4,38.5,29.80,SE,133,7.0,7.0,86,0.00,,,0.00,Wunderground v.1.15,2013-04-07 19:30:00,
2013-04-07 14:32:00,42.4,38.5,29.80,SE,141,7.0,8.0,86,0.00,,,0.00,Wunderground v.1.15,2013-04-07 19:32:00,
2013-04-07 14:34:00,42.4,38.2,29.80,SE,136,7.0,10.0,85,0.00,,,0.00,Wunderground v.1.15,2013-04-07 19:34:00,
2013-04-07 14:36:00,42.5,38.6,29.80,SSE,148,7.0,10.0,86,0.00,,,0.00,Wunderground v.1.15,2013-04-07 19:36:00,
2013-04-07 14:38:00,42.8,38.9,29.79,South,183,7.0,10.0,86,0.00,,,0.00,Wunderground v.1.15,2013-04-07 19:38:00,
2013-04-07 14:40:00,42.9,38.7,29.79,SE,128,7.0,7.0,85,0.00,,,0.00,Wunderground v.1.15,2013-04-07 19:40:00,
2013-04-07 14:44:00,43.1,38.9,29.78,South,186,7.0,10.0,85,0.00,,,0.00,Wunderground v.1.15,2013-04-07 19:44:00,
2013-04-07 14:48:00,43.5,39.3,29.77,SE,144,7.0,10.0,85,0.00,,,0.00,Wunderground v.1.15,2013-04-07 19:48:00,
2013-04-07 14:52:00,44.3,39.8,29.77,SE,126,6.0,10.0,84,0.00,,,0.00,Wunderground v.1.15,2013-04-07 19:52:00,
2013-04-07 14:56:00,45.0,40.1,29.77,SE,136,6.0,10.0,83,0.00,,,0.00,Wunderground v.1.15,2013-04-07 19:56:00,
2013-04-07 15:02:00,44.8,39.6,29.78,ESE,115,7.0,10.0,82,0.00,,,0.00,Wunderground v.1.15,2013-04-07 20:02:00,
2013-04-07 15:04:00,44.7,39.5,29.77,SE,141,7.0,10.0,82,0.00,,,0.00,Wunderground v.1.15,2013-04-07 20:04:00,
2013-04-07 15:08:00,44.6,39.4,29.76,SSE,160,7.0,10.0,82,0.00,,,0.00,Wunderground v.1.15,2013-04-07 20:08:00,
2013-04-07 15:10:00,44.7,39.5,29.76,SSE,158,7.0,10.0,82,0.00,,,0.00,Wunderground v.1.15,2013-04-07 20:10:00,
2013-04-07 15:12:00,44.7,39.5,29.76,SSE,166,6.0,10.0,82,0.00,,,0.00,Wunderground v.1.15,2013-04-07 20:12:00,
2013-04-07 15:18:00,45.1,39.9,29.77,SE,146,6.0,10.0,82,0.00,,,0.00,Wunderground v.1.15,2013-04-07 20:18:00,
2013-04-07 15:22:00,45.3,40.1,29.76,SE,128,6.0,10.0,82,0.00,,,0.00,Wunderground v.1.15,2013-04-07 20:22:00,
2013-04-07 15:28:00,46.1,40.6,29.75,SE,133,7.0,10.0,81,0.00,,,0.00,Wunderground v.1.15,2013-04-07 20:28:00,
2013-04-07 15:30:00,46.3,40.8,29.75,SSE,167,7.0,10.0,81,0.00,,,0.00,Wunderground v.1.15,2013-04-07 20:30:00,
2013-04-07 15:36:00,46.5,41.0,29.74,SSE,162,7.0,10.0,81,0.00,,,0.00,Wunderground v.1.15,2013-04-07 20:36:00,
2013-04-07 15:38:00,46.6,41.1,29.74,SE,140,7.0,10.0,81,0.00,,,0.00,Wunderground v.1.15,2013-04-07 20:38:00,
2013-04-07 15:42:00,46.8,41.3,29.74,SE,142,6.0,10.0,81,0.00,,,0.00,Wunderground v.1.15,2013-04-07 20:42:00,
2013-04-07 15:46:00,47.3,41.4,29.74,North,349,6.0,10.0,80,0.00,,,0.00,Wunderground v.1.15,2013-04-07 20:46:00,
2013-04-07 15:48:00,47.6,41.7,29.74,SE,124,6.0,10.0,80,0.00,,,0.00,Wunderground v.1.15,2013-04-07 20:48:00,
2013-04-07 15:50:00,47.8,41.6,29.74,SE,133,6.0,10.0,79,0.00,,,0.00,Wunderground v.1.15,2013-04-07 20:50:00,
2013-04-07 15:54:00,47.9,42.0,29.74,SE,136,6.0,10.0,80,0.00,,,0.00,Wunderground v.1.15,2013-04-07 20:54:00,
2013-04-07 16:00:00,48.2,42.0,29.74,SSE,162,6.0,10.0,79,0.00,,,0.00,Wunderground v.1.15,2013-04-07 21:00:00,
2013-04-07 16:02:00,48.3,42.1,29.74,SSE,152,6.0,10.0,79,0.00,,,0.00,Wunderground v.1.15,2013-04-07 21:02:00,
2013-04-07 16:04:00,48.3,42.1,29.73,South,173,6.0,10.0,79,0.00,,,0.00,Wunderground v.1.15,2013-04-07 21:04:00,
2013-04-07 16:10:00,48.7,42.5,29.73,SSE,153,5.0,10.0,79,0.00,,,0.00,Wunderground v.1.15,2013-04-07 21:10:00,
2013-04-07 16:12:00,48.8,42.6,29.73,SE,145,5.0,10.0,79,0.00,,,0.00,Wunderground v.1.15,2013-04-07 21:12:00,
2013-04-07 16:16:00,49.0,42.8,29.72,SSE,148,5.0,10.0,79,0.00,,,0.00,Wunderground v.1.15,2013-04-07 21:16:00,
2013-04-07 16:18:00,49.0,42.8,29.72,SE,134,5.0,10.0,79,0.00,,,0.00,Wunderground v.1.15,2013-04-07 21:18:00,
2013-04-07 16:22:00,49.3,43.1,29.72,SSE,165,5.0,10.0,79,0.00,,,0.00,Wunderground v.1.15,2013-04-07 21:22:00,
2013-04-07 16:28:00,49.9,42.6,29.72,ESE,117,6.0,12.0,76,0.00,,,0.00,Wunderground v.1.15,2013-04-07 21:28:00,
2013-04-07 16:32:00,50.1,42.5,29.72,SE,135,7.0,10.0,75,0.00,,,0.00,Wunderground v.1.15,2013-04-07 21:32:00,
2013-04-07 16:38:00,50.3,42.7,29.72,SE,133,8.0,10.0,75,0.00,,,0.00,Wunderground v.1.15,2013-04-07 21:38:00,
2013-04-07 16:40:00,50.3,42.7,29.72,SE,128,8.0,10.0,75,0.00,,,0.00,Wunderground v.1.15,2013-04-07 21:40:00,
2013-04-07 16:46:00,50.1,42.8,29.72,SE,141,9.0,11.0,76,0.00,,,0.00,Wunderground v.1.15,2013-04-07 21:46:00,
2013-04-07 16:48:00,49.9,42.6,29.72,ESE,123,9.0,11.0,76,0.00,,,0.00,Wunderground v.1.15,2013-04-07 21:48:00,
2013-04-07 16:52:00,49.7,42.8,29.72,SE,135,8.0,11.0,77,0.00,,,0.00,Wunderground v.1.15,2013-04-07 21:52:00,
2013-04-07 16:56:00,49.6,43.0,29.72,SE,125,8.0,11.0,78,0.00,,,0.00,Wunderground v.1.15,2013-04-07 21:56:00,
2013-04-07 17:04:00,49.6,43.4,29.73,ESE,118,7.0,10.0,79,0.00,,,0.00,Wunderground v.1.15,2013-04-07 22:04:00,
2013-04-07 17:06:00,49.6,43.4,29.72,SE,127,6.0,10.0,79,0.00,,,0.00,Wunderground v.1.15,2013-04-07 22:06:00,
2013-04-07 17:10:00,49.6,43.4,29.72,ESE,123,6.0,10.0,79,0.00,,,0.00,Wunderground v.1.15,2013-04-07 22:10:00,
2013-04-07 17:12:00,49.7,43.5,29.73,SE,138,6.0,10.0,79,0.00,,,0.00,Wunderground v.1.15,2013-04-07 22:12:00,
2013-04-07 17:14:00,49.7,43.5,29.72,SE,142,6.0,10.0,79,0.00,,,0.00,Wunderground v.1.15,2013-04-07 22:14:00,
2013-04-07 17:18:00,49.8,43.5,29.72,SSE,155,6.0,10.0,79,0.00,,,0.00,Wunderground v.1.15,2013-04-07 22:18:00,
2013-04-07 17:20:00,49.9,43.6,29.72,SE,134,6.0,10.0,79,0.00,,,0.00,Wunderground v.1.15,2013-04-07 22:20:00,
2013-04-07 17:22:00,49.9,43.6,29.72,SE,134,6.0,10.0,79,0.00,,,0.00,Wunderground v.1.15,2013-04-07 22:22:00,
2013-04-07 17:28:00,49.9,44.0,29.72,ESE,120,7.0,10.0,80,0.00,,,0.00,Wunderground v.1.15,2013-04-07 22:28:00,
2013-04-07 17:32:00,50.0,44.1,29.72,SE,145,7.0,10.0,80,0.00,,,0.00,Wunderground v.1.15,2013-04-07 22:32:00,
2013-04-07 17:36:00,50.0,44.1,29.72,SE,142,6.0,10.0,80,0.00,,,0.00,Wunderground v.1.15,2013-04-07 22:36:00,
2013-04-07 17:42:00,49.9,44.0,29.72,SE,141,5.0,10.0,80,0.00,,,0.00,Wunderground v.1.15,2013-04-07 22:42:00,
2013-04-07 17:44:00,50.0,44.4,29.72,SE,141,5.0,10.0,81,0.00,,,0.00,Wunderground v.1.15,2013-04-07 22:44:00,
2013-04-07 17:46:00,50.0,44.1,29.72,SE,128,5.0,10.0,80,0.00,,,0.00,Wunderground v.1.15,2013-04-07 22:46:00,
2013-04-07 17:48:00,50.0,44.1,29.72,ESE,117,5.0,10.0,80,0.00,,,0.00,Wunderground v.1.15,2013-04-07 22:48:00,
2013-04-07 17:54:00,50.3,44.4,29.73,SSE,153,4.0,10.0,80,0.00,,,0.00,Wunderground v.1.15,2013-04-07 22:54:00,
2013-04-07 17:56:00,50.3,44.4,29.73,SE,136,4.0,10.0,80,0.00,,,0.00,Wunderground v.1.15,2013-04-07 22:56:00,
2013-04-07 18:00:00,50.3,44.4,29.73,SE,129,3.0,10.0,80,0.00,,,0.00,Wunderground v.1.15,2013-04-07 23:00:00,
2013-04-07 18:02:00,50.4,44.5,29.73,SE,138,3.0,10.0,80,0.00,,,0.00,Wunderground v.1.15,2013-04-07 23:02:00,
2013-04-07 18:04:00,50.5,44.6,29.73,SE,133,3.0,10.0,80,0.00,,,0.00,Wunderground v.1.15,2013-04-07 23:04:00,
2013-04-07 18:08:00,50.6,44.7,29.72,SE,132,3.0,10.0,80,0.00,,,0.00,Wunderground v.1.15,2013-04-07 23:08:00,
2013-04-07 18:10:00,50.6,44.3,29.72,SE,136,3.0,10.0,79,0.00,,,0.00,Wunderground v.1.15,2013-04-07 23:10:00,
2013-04-07 18:14:00,50.7,44.4,29.72,SE,134,3.0,10.0,79,0.00,,,0.00,Wunderground v.1.15,2013-04-07 23:14:00,
2013-04-07 18:20:00,50.6,44.0,29.72,SE,140,4.0,4.0,78,0.00,,,0.00,Wunderground v.1.15,2013-04-07 23:20:00,
2013-04-07 18:26:00,50.3,44.4,29.72,SE,140,3.0,10.0,80,0.00,,,0.00,Wunderground v.1.15,2013-04-07 23:26:00,
2013-04-07 18:30:00,50.3,44.4,29.72,SE,134,3.0,10.0,80,0.00,,,0.00,Wunderground v.1.15,2013-04-07 23:30:00,
2013-04-07 18:32:00,50.3,44.4,29.71,SSE,148,3.0,10.0,80,0.00,,,0.00,Wunderground v.1.15,2013-04-07 23:32:00,
2013-04-07 18:34:00,50.2,44.3,29.71,SE,145,3.0,10.0,80,0.00,,,0.00,Wunderground v.1.15,2013-04-07 23:34:00,
2013-04-07 18:36:00,50.1,44.2,29.71,SE,136,3.0,10.0,80,0.00,,,0.00,Wunderground v.1.15,2013-04-07 23:36:00,
2013-04-07 18:38:00,49.9,44.0,29.71,SE,141,3.0,10.0,80,0.00,,,0.00,Wunderground v.1.15,2013-04-07 23:38:00,
2013-04-07 18:40:00,49.7,43.8,29.71,SSE,148,3.0,10.0,80,0.00,,,0.00,Wunderground v.1.15,2013-04-07 23:40:00,
2013-04-07 18:46:00,49.4,44.1,29.70,SSE,163,3.0,10.0,82,0.00,,,0.00,Wunderground v.1.15,2013-04-07 23:46:00,
2013-04-07 18:48:00,49.3,44.0,29.70,SSE,150,3.0,10.0,82,0.00,,,0.00,Wunderground v.1.15,2013-04-07 23:48:00,
2013-04-07 18:50:00,49.2,43.9,29.70,SSW,203,3.0,3.0,82,0.00,,,0.00,Wunderground v.1.15,2013-04-07 23:50:00,
2013-04-07 18:56:00,49.0,44.1,29.70,WSW,245,2.0,10.0,83,0.00,,,0.00,Wunderground v.1.15,2013-04-07 23:56:00,
2013-04-07 18:58:00,49.0,44.1,29.70,ENE,73,1.0,10.0,83,0.00,,,0.00,Wunderground v.1.15,2013-04-07 23:58:00,
2013-04-07 19:02:00,49.0,44.1,29.70,ENE,63,1.0,10.0,83,0.00,,,0.00,Wunderground v.1.15,2013-04-08 00:02:00,
2013-04-07 19:04:00,49.0,44.1,29.70,East,82,1.0,10.0,83,0.00,,,0.00,Wunderground v.1.15,2013-04-08 00:04:00,
2013-04-07 19:08:00,49.3,44.7,29.70,SE,127,1.0,10.0,84,0.00,,,0.00,Wunderground v.1.15,2013-04-08 00:08:00,
2013-04-07 19:12:00,49.6,45.0,29.70,East,88,1.0,10.0,84,0.00,,,0.00,Wunderground v.1.15,2013-04-08 00:12:00,
2013-04-07 19:14:00,49.7,45.1,29.71,SE,131,1.0,10.0,84,0.00,,,0.00,Wunderground v.1.15,2013-04-08 00:14:00,
2013-04-07 19:18:00,49.5,44.6,29.71,SE,133,1.0,10.0,83,0.00,,,0.00,Wunderground v.1.15,2013-04-08 00:18:00,
2013-04-07 19:20:00,49.4,44.8,29.71,SSE,159,1.0,10.0,84,0.00,,,0.00,Wunderground v.1.15,2013-04-08 00:20:00,
2013-04-07 19:22:00,49.4,44.8,29.71,SSE,149,1.0,10.0,84,0.00,,,0.00,Wunderground v.1.15,2013-04-08 00:22:00,
2013-04-07 19:28:00,49.2,44.9,29.72,SSE,152,2.0,10.0,85,0.00,,,0.00,Wunderground v.1.15,2013-04-08 00:28:00,
2013-04-07 19:30:00,49.0,44.7,29.73,SE,144,2.0,10.0,85,0.00,,,0.00,Wunderground v.1.15,2013-04-08 00:30:00,
2013-04-07 19:38:00,48.4,44.4,29.71,SSW,198,2.0,10.0,86,0.00,,,0.01,Wunderground v.1.15,2013-04-08 00:38:00,
2013-04-07 19:40:00,48.3,44.6,29.71,NE,43,2.0,10.0,87,0.00,,,0.01,Wunderground v.1.15,2013-04-08 00:40:00,
2013-04-07 19:48:00,48.0,44.6,29.71,ENE,61,0.0,10.0,88,0.06,,,0.02,Wunderground v.1.15,2013-04-08 00:48:00,
2013-04-07 19:50:00,47.7,44.3,29.71,NNE,26,1.0,10.0,88,0.06,,,0.02,Wunderground v.1.15,2013-04-08 00:50:00,
2013-04-07 19:52:00,47.5,44.4,29.70,NE,34,1.0,10.0,89,0.05,,,0.02,Wunderground v.1.15,2013-04-08 00:52:00,
2013-04-07 19:54:00,47.3,44.5,29.70,NE,43,2.0,10.0,90,0.04,,,0.02,Wunderground v.1.15,2013-04-08 00:54:00,
2013-04-07 19:58:00,47.2,45.0,29.70,NNE,28,3.0,10.0,92,0.04,,,0.03,Wunderground v.1.15,2013-04-08 00:58:00,
2013-04-07 20:02:00,47.4,45.5,29.69,NE,53,3.0,10.0,93,0.04,,,0.03,Wunderground v.1.15,2013-04-08 01:02:00,
2013-04-07 20:08:00,47.6,45.7,29.69,ENE,72,4.0,10.0,93,0.04,,,0.03,Wunderground v.1.15,2013-04-08 01:08:00,
2013-04-07 20:12:00,47.7,45.8,29.69,NE,49,4.0,10.0,93,0.04,,,0.03,Wunderground v.1.15,2013-04-08 01:12:00,
2013-04-07 20:16:00,47.8,45.9,29.69,ENE,70,4.0,10.0,93,0.00,,,0.03,Wunderground v.1.15,2013-04-08 01:16:00,
2013-04-07 20:18:00,47.8,45.6,29.69,East,89,4.0,10.0,92,0.00,,,0.03,Wunderground v.1.15,2013-04-08 01:18:00,
2013-04-07 20:22:00,47.7,45.5,29.69,SSW,195,3.0,10.0,92,0.00,,,0.04,Wunderground v.1.15,2013-04-08 01:22:00,
2013-04-07 20:24:00,47.7,45.5,29.69,SSW,212,3.0,10.0,92,0.00,,,0.04,Wunderground v.1.15,2013-04-08 01:24:00,
2013-04-07 20:30:00,47.4,45.2,29.69,NNE,20,1.0,1.0,92,0.00,,,0.04,Wunderground v.1.15,2013-04-08 01:30:00,
2013-04-07 20:32:00,47.3,45.1,29.68,ESE,103,1.0,2.0,92,0.00,,,0.04,Wunderground v.1.15,2013-04-08 01:32:00,
2013-04-07 20:38:00,47.4,45.5,29.68,ENE,61,3.0,10.0,93,0.00,,,0.04,Wunderground v.1.15,2013-04-08 01:38:00,
2013-04-07 20:40:00,47.4,45.5,29.68,East,91,3.0,10.0,93,0.00,,,0.04,Wunderground v.1.15,2013-04-08 01:40:00,
2013-04-07 20:46:00,47.4,45.5,29.68,WNW,300,3.0,10.0,93,0.00,,,0.04,Wunderground v.1.15,2013-04-08 01:46:00,
2013-04-07 20:48:00,47.3,45.4,29.68,NE,55,3.0,10.0,93,0.00,,,0.04,Wunderground v.1.15,2013-04-08 01:48:00,
2013-04-07 20:52:00,47.2,45.3,29.68,NE,55,2.0,10.0,93,0.00,,,0.05,Wunderground v.1.15,2013-04-08 01:52:00,
2013-04-07 20:58:00,47.3,45.7,29.68,East,84,3.0,10.0,94,0.00,,,0.05,Wunderground v.1.15,2013-04-08 01:58:00,
2013-04-07 21:02:00,47.4,45.8,29.68,ENE,65,3.0,10.0,94,0.00,,,0.05,Wunderground v.1.15,2013-04-08 02:02:00,
2013-04-07 21:06:00,47.4,45.8,29.68,SE,125,3.0,10.0,94,0.00,,,0.05,Wunderground v.1.15,2013-04-08 02:06:00,
2013-04-07 21:08:00,47.4,45.8,29.68,NNE,21,3.0,10.0,94,0.00,,,0.05,Wunderground v.1.15,2013-04-08 02:08:00,
2013-04-07 21:12:00,47.4,45.8,29.68,ENE,59,3.0,10.0,94,0.00,,,0.06,Wunderground v.1.15,2013-04-08 02:12:00,
2013-04-07 21:14:00,47.4,45.8,29.69,NE,44,3.0,10.0,94,0.00,,,0.06,Wunderground v.1.15,2013-04-08 02:14:00,
2013-04-07 21:16:00,47.4,45.8,29.69,NE,54,3.0,10.0,94,0.00,,,0.06,Wunderground v.1.15,2013-04-08 02:16:00,
2013-04-07 21:22:00,47.4,45.8,29.69,ENE,69,3.0,10.0,94,0.06,,,0.07,Wunderground v.1.15,2013-04-08 02:22:00,
2013-04-07 21:28:00,47.3,45.7,29.68,ENE,58,3.0,10.0,94,0.06,,,0.07,Wunderground v.1.15,2013-04-08 02:28:00,
2013-04-07 21:30:00,47.4,46.0,29.68,ENE,58,3.0,10.0,95,0.05,,,0.07,Wunderground v.1.15,2013-04-08 02:30:00,
2013-04-07 21:32:00,47.4,46.0,29.68,ENE,60,4.0,10.0,95,0.05,,,0.08,Wunderground v.1.15,2013-04-08 02:32:00,
2013-04-07 21:34:00,47.4,46.0,29.68,NE,56,4.0,10.0,95,0.05,,,0.08,Wunderground v.1.15,2013-04-08 02:34:00,
2013-04-07 21:38:00,47.4,46.0,29.68,East,84,3.0,10.0,95,0.05,,,0.08,Wunderground v.1.15,2013-04-08 02:38:00,
2013-04-07 21:40:00,47.4,46.0,29.68,SE,125,3.0,3.0,95,0.05,,,0.08,Wunderground v.1.15,2013-04-08 02:40:00,
2013-04-07 21:44:00,47.1,45.5,29.68,NE,46,2.0,10.0,94,0.05,,,0.09,Wunderground v.1.15,2013-04-08 02:44:00,
2013-04-07 21:50:00,46.7,45.1,29.68,SW,217,1.0,1.0,94,0.05,,,0.09,Wunderground v.1.15,2013-04-08 02:50:00,
2013-04-07 21:52:00,46.5,45.1,29.68,WSW,245,1.0,10.0,95,0.05,,,0.09,Wunderground v.1.15,2013-04-08 02:52:00,
2013-04-07 21:54:00,46.4,45.0,29.68,NNE,33,0.0,10.0,95,0.05,,,0.09,Wunderground v.1.15,2013-04-08 02:54:00,
2013-04-07 22:00:00,46.1,44.7,29.68,West,263,1.0,10.0,95,0.04,,,0.09,Wunderground v.1.15,2013-04-08 03:00:00,
2013-04-07 22:02:00,46.0,44.9,29.68,North,359,1.0,10.0,96,0.00,,,0.09,Wunderground v.1.15,2013-04-08 03:02:00,
2013-04-07 22:04:00,46.0,44.9,29.68,WNW,297,1.0,10.0,96,0.00,,,0.09,Wunderground v.1.15,2013-04-08 03:04:00,
2013-04-07 22:08:00,45.8,44.7,29.68,NE,37,1.0,10.0,96,0.00,,,0.09,Wunderground v.1.15,2013-04-08 03:08:00,
2013-04-07 22:10:00,45.7,44.6,29.67,SSW,197,1.0,10.0,96,0.00,,,0.09,Wunderground v.1.15,2013-04-08 03:10:00,
2013-04-07 22:14:00,45.6,44.5,29.68,NNE,28,1.0,10.0,96,0.00,,,0.09,Wunderground v.1.15,2013-04-08 03:14:00,
2013-04-07 22:16:00,45.6,44.8,29.67,NW,308,1.0,10.0,97,0.00,,,0.09,Wunderground v.1.15,2013-04-08 03:16:00,
2013-04-07 22:20:00,45.6,44.8,29.67,SW,221,1.0,10.0,97,0.00,,,0.09,Wunderground v.1.15,2013-04-08 03:20:00,
2013-04-07 22:24:00,45.7,44.9,29.67,SW,224,2.0,10.0,97,0.00,,,0.09,Wunderground v.1.15,2013-04-08 03:24:00,
2013-04-07 22:28:00,45.7,44.9,29.67,NNE,18,2.0,10.0,97,0.00,,,0.09,Wunderground v.1.15,2013-04-08 03:28:00,
2013-04-07 22:30:00,45.7,44.9,29.67,SSW,208,2.0,2.0,97,0.00,,,0.09,Wunderground v.1.15,2013-04-08 03:30:00,
2013-04-07 22:32:00,45.7,44.9,29.67,South,181,2.0,10.0,97,0.00,,,0.09,Wunderground v.1.15,2013-04-08 03:32:00,
2013-04-07 22:36:00,45.7,44.9,29.67,South,174,2.0,10.0,97,0.00,,,0.09,Wunderground v.1.15,2013-04-08 03:36:00,
2013-04-07 22:42:00,45.6,44.8,29.66,SW,231,2.0,10.0,97,0.00,,,0.09,Wunderground v.1.15,2013-04-08 03:42:00,
2013-04-07 22:46:00,45.5,44.7,29.66,WSW,245,2.0,10.0,97,0.00,,,0.09,Wunderground v.1.15,2013-04-08 03:46:00,
2013-04-07 22:48:00,45.5,44.7,29.66,SW,236,2.0,10.0,97,0.00,,,0.09,Wunderground v.1.15,2013-04-08 03:48:00,
2013-04-07 22:50:00,45.5,44.7,29.66,South,183,2.0,10.0,97,0.00,,,0.09,Wunderground v.1.15,2013-04-08 03:50:00,
2013-04-07 22:58:00,45.4,44.9,29.65,SSE,153,2.0,10.0,98,0.00,,,0.09,Wunderground v.1.15,2013-04-08 03:58:00,
2013-04-07 23:00:00,45.3,44.5,29.64,SSW,212,2.0,2.0,97,0.00,,,0.09,Wunderground v.1.15,2013-04-08 04:00:00,
2013-04-07 23:02:00,45.3,44.8,29.64,WSW,242,2.0,3.0,98,0.00,,,0.09,Wunderground v.1.15,2013-04-08 04:02:00,
2013-04-07 23:06:00,45.5,45.0,29.64,NW,314,2.0,10.0,98,0.00,,,0.09,Wunderground v.1.15,2013-04-08 04:06:00,
2013-04-07 23:08:00,45.6,45.1,29.64,North,11,2.0,10.0,98,0.00,,,0.09,Wunderground v.1.15,2013-04-08 04:08:00,
2013-04-07 23:10:00,45.6,45.1,29.64,North,6,2.0,2.0,98,0.00,,,0.09,Wunderground v.1.15,2013-04-08 04:10:00,
2013-04-07 23:14:00,45.5,45.0,29.64,South,190,2.0,10.0,98,0.00,,,0.09,Wunderground v.1.15,2013-04-08 04:14:00,
2013-04-07 23:16:00,45.5,45.0,29.64,South,189,2.0,10.0,98,0.00,,,0.09,Wunderground v.1.15,2013-04-08 04:16:00,
2013-04-07 23:18:00,45.5,45.0,29.64,SW,226,1.0,10.0,98,0.00,,,0.09,Wunderground v.1.15,2013-04-08 04:18:00,
2013-04-07 23:24:00,45.7,45.2,29.64,NE,53,2.0,10.0,98,0.00,,,0.09,Wunderground v.1.15,2013-04-08 04:24:00,
2013-04-07 23:30:00,45.9,45.4,29.63,SSW,200,2.0,10.0,98,0.00,,,0.09,Wunderground v.1.15,2013-04-08 04:30:00,
2013-04-07 23:32:00,46.0,45.5,29.63,SSE,167,2.0,10.0,98,0.00,,,0.09,Wunderground v.1.15,2013-04-08 04:32:00,
2013-04-07 23:36:00,46.0,45.5,29.63,South,174,2.0,10.0,98,0.00,,,0.09,Wunderground v.1.15,2013-04-08 04:36:00,
2013-04-07 23:38:00,46.0,45.5,29.63,South,170,2.0,10.0,98,0.00,,,0.09,Wunderground v.1.15,2013-04-08 04:38:00,
2013-04-07 23:40:00,46.0,45.2,29.63,SE,136,2.0,10.0,97,0.00,,,0.09,Wunderground v.1.15,2013-04-08 04:40:00,
2013-04-07 23:48:00,46.0,45.2,29.63,South,191,3.0,10.0,97,0.00,,,0.09,Wunderground v.1.15,2013-04-08 04:48:00,
2013-04-07 23:52:00,46.1,45.3,29.62,South,191,3.0,10.0,97,0.00,,,0.09,Wunderground v.1.15,2013-04-08 04:52:00,
2013-04-07 23:54:00,46.1,45.3,29.62,SSE,158,3.0,10.0,97,0.00,,,0.09,Wunderground v.1.15,2013-04-08 04:54:00,
2013-04-07 23:58:00,46.2,45.4,29.62,SSE,155,2.0,10.0,97,0.00,,,0.09,Wunderground v.1.15,2013-04-08 04:58:00,